sat.trackr.live / text

‹ back to catalog

STARLINK-35259

NORAD 66197 · 2025-243W

PAYLOAD ACTIVE UNKNOWN

§ Identity

Operator
Country
US
Launch date
2025-10-26
Launch site
AFETR
Launch vehicle
Mass (kg)
RCS (m²)

Purposes: comms

External: N2YO · Heavens-Above · Gunter

§ Orbital elements

Epoch: 2026-09-19T23:18:41.252256Z

Period
93.85 min
Inclination
53.1584°
Eccentricity
0.0001113
Mean motion
15.34402687 rev/d
Perigee alt
461.9 km
Apogee alt
463.5 km
Semi-major
6,840.8 km
B*
5.5756e-4
RAAN
60.3894°
Arg perigee
86.7204°
Mean anomaly
273.3926°
Rev number
5,043

§ Raw data

STARLINK-352591 66197U 25243W   26262.97131079  .00018510  00000+0  55756-3 0  99952 66197  53.1584  60.3894 0001113  86.7204 273.3926 15.34402687 50434

JSON: /api/v1/satellites/66197 · /tle

For live sub-satellite position, see the globe view (requires WebGL).

§ Visibility from observer

Set your observer location to see the next 7 days of passes ≥ 10°. The values pass through the URL so the page stays shareable.

No JS? Fill the form by hand. The geolocation button needs JavaScript.